SCP
0 0 0 0 0 0 0 0 0 0 0 1 1 1 1 1 1 2 2 1 1 1 1 1 3 5 5 4 2 2 2 2 1 2 2 3 3 3 3 3 3 4 4 3
0 0 0 0 0 0 0 0 0 0 0 0 1 1 0 1 1 2 2 2 1 1 1 2 3 5 5 4 3 2 2 2 2 2 2 3 3 3 3 3 3 3 3 3
0 0 0 0 0 0 0 0 0 0 0 0 0 0 0 0 1 1 2 2 2 2 2 2 4 4 4 3 3 3 3 2 2 2 3 3 3 3 3 3 2 2 2 2
0 0 0 0 0 0 0 0 0 0 0 0 0 0 0 0 0 1 1 2 1 2 2 2 3 4 4 3 3 3 3 3 2 2 3 3 4 4 3 3 2 2 2 1
0 0 0 0 0 0 0 0 0 0 0 0 0 0 0 0 0 1 2 2 2 2 2 2 3 3 3 3 3 3 3 3 2 3 4 4 5 4 4 3 2 1 1 1
0 0 0 0 0 0 0 0 0 0 0 0 0 0 0 0 1 2 4 4 3 2 2 2 3 3 3 3 3 3 4 3 3 3 4 6 6 5 4 3 2 2 1 1
0 0 0 0 0 0 0 0 0 0 0 0 0 0 0 0 1 2 4 5 5 4 3 2 3 3 3 3 3 3 4 3 4 5 7 7 7 5 3 3 3 2 1 1
0 0 0 0 0 0 0 0 0 0 0 0 0 0 0 1 2 3 3 4 5 4 3 3 3 3 4 3 3 3 4 4 5 7 9 9 7 4 3 3 3 2 1 1
0 0 0 0 0 0 0 0 0 0 0 0 0 0 1 2 2 3 3 3 3 2 2 2 3 3 3 3 3 3 4 5 7 9 11 9 6 4 3 4 3 2 2 2
0 0 0 0 0 0 0 0 0 0 0 0 0 0 1 2 3 3 2 2 2 1 2 2 2 2 3 3 4 5 6 8 9 10 10 7 5 4 4 4 4 3 3 3
0 0 0 0 0 0 0 0 0 0 0 0 0 0 1 3 3 2 2 2 2 2 2 2 2 3 3 4 6 8 8 8 8 9 9 7 6 5 5 4 4 4 4 4
0 0 0 0 0 0 0 0 0 0 0 0 0 0 1 2 2 2 2 2 2 2 2 3 4 4 5 6 7 7 6 6 6 8 9 8 7 6 4 3 3 4 4 4
0 0 0 0 0 0 0 0 0 0 0 0 0 1 1 2 2 3 4 4 3 3 3 5 6 7 7 7 6 6 5 5 7 10 11 11 9 6 4 3 3 4 4 5
0 0 0 0 0 0 0 0 0 0 0 0 0 1 1 2 2 3 4 4 4 4 5 7 8 8 7 7 6 7 7 9 11 13 14 12 8 5 4 4 4 5 5 5
0 0 0 0 0 0 0 0 0 0 0 0 0 1 2 3 4 5 5 5 5 5 6 7 8 8 7 6 7 8 9 11 14 15 14 12 8 6 6 6 6 6 5 4
0 0 0 0 0 0 0 0 0 0 0 0 0 1 4 7 9 8 7 6 5 5 5 6 7 7 6 6 6 8 10 13 14 14 12 10 8 8 8 8 7 6 4 4
0 0 0 0 0 0 0 0 0 0 0 1 1 3 6 9 11 9 7 6 5 5 5 6 6 6 6 5 6 8 10 12 13 11 9 7 8 9 8 6 5 4 4 4
0 0 0 0 0 0 0 0 1 1 1 2 3 6 8 9 9 8 7 6 5 5 6 7 7 7 7 7 8 9 10 10 9 8 6 5 5 6 5 3 3 3 4 4
0 0 0 0 0 0 0 1 1 2 2 3 5 7 7 7 7 6 5 5 5 6 9 9 9 9 8 8 9 10 9 8 7 5 4 3 3 3 2 2 2 3 4 4
0 0 0 0 0 0 1 1 2 2 2 2 4 5 5 5 4 4 4 4 5 8 11 12 11 10 9 8 8 8 8 7 5 4 3 2 2 2 2 2 2 3 4 4
0 0 0 0 0 0 1 1 1 1 1 1 1 2 3 3 3 3 3 4 7 11 13 13 11 10 8 7 7 7 6 6 5 4 3 2 1 1 2 2 3 3 4 6
0 0 0 0 0 0 1 1 1 1 0 0 1 1 2 3 4 4 5 6 9 12 12 11 9 8 7 6 6 6 6 6 5 4 3 2 2 2 2 3 3 3 5 7
0 0 1 1 1 0 1 1 1 1 0 1 1 2 3 4 4 5 5 6 8 9 9 8 7 6 6 5 5 6 6 6 5 5 4 4 4 4 4 4 4 4 6 8
0 1 2 2 1 1 1 1 1 1 1 1 2 3 4 5 5 5 6 6 6 6 7 7 7 7 6 6 6 5 6 6 6 7 7 6 7 7 6 5 4 4 6 8
0 1 2 2 2 2 1 1 1 1 2 3 4 5 6 5 5 5 6 6 6 6 7 8 8 8 8 8 7 6 6 6 7 8 8 8 8 8 7 6 5 4 5 7
0 1 1 2 2 2 1 2 2 2 3 3 5 7 7 5 5 5 5 5 5 6 8 9 9 9 9 9 8 7 7 7 7 8 8 7 8 8 8 8 6 4 5 7
Wind_Speed
2 2 3 6 6 6 4 2 2 4 3 4 5 6 9 10 8 9 8 8 8 8 7 7 8 8 7 6 7 6 6 5 4 2 2 2 2 2 1 2 2 3 2 2
4 4 10 7 5 3 2 1 2 3 2 4 4 4 7 9 11 12 12 11 10 8 6 7 7 7 7 8 7 6 6 5 4 3 3 2 2 2 2 1 1 2 2 2
5 9 7 5 5 2 2 3 4 3 0 3 4 2 2 3 4 7 9 9 10 11 11 10 9 8 7 8 8 8 7 6 5 4 3 2 2 1 1 1 1 1 2 2
6 8 6 5 4 2 4 4 3 1 2 1 3 1 5 4 3 5 8 9 9 10 10 10 10 10 9 9 7 6 6 6 5 5 4 4 4 3 3 2 1 1 1 1
6 4 4 6 6 3 4 1 1 0 1 2 2 3 6 2 4 6 7 10 11 11 11 12 12 12 10 8 7 6 6 5 5 5 5 5 3 2 2 1 2 1 0 1
8 6 5 6 5 3 1 4 5 5 5 2 3 2 5 4 8 6 6 9 10 11 11 11 10 9 8 8 7 7 6 5 5 5 5 5 5 4 3 2 2 1 0 0
7 8 6 3 2 4 3 6 5 6 5 4 2 1 6 7 6 8 8 8 8 8 9 9 9 8 8 8 8 7 7 6 5 5 5 5 5 5 5 4 3 2 1 1
3 7 5 2 4 4 2 8 7 3 4 4 3 2 6 5 3 3 5 7 8 7 8 8 9 9 9 10 9 8 8 7 7 6 6 4 4 3 3 3 3 3 2 2
4 6 5 4 2 5 2 2 7 7 1 1 3 3 6 3 3 2 3 4 6 6 7 7 7 8 9 9 9 9 9 8 7 7 6 5 4 3 3 3 3 2 2 2
6 3 5 4 4 3 4 5 5 5 3 1 3 2 4 3 2 0 3 4 4 5 6 6 6 7 8 8 8 7 7 7 6 6 6 5 4 4 3 3 2 2 2 2
4 3 5 3 1 0 2 2 5 4 5 6 2 6 5 6 4 4 3 4 5 6 6 6 5 6 6 6 6 6 5 5 4 5 5 5 4 4 4 3 3 3 2 2
2 5 2 6 5 2 3 3 5 4 3 4 4 7 4 2 2 4 3 2 4 6 6 6 5 4 4 5 5 6 5 5 4 4 4 5 4 4 4 4 3 4 3 2
3 6 2 8 8 6 3 2 3 5 4 3 4 6 3 1 1 2 3 2 2 4 4 5 5 6 5 5 5 5 5 5 4 4 3 3 4 4 4 4 4 3 3 2
4 5 6 6 6 3 3 3 2 4 3 2 4 4 3 1 1 1 2 2 3 4 5 5 4 5 5 5 4 5 5 5 5 5 4 4 4 4 4 4 3 3 3 3
5 3 2 3 3 1 1 3 3 1 4 5 5 4 6 5 4 3 3 3 4 4 5 6 5 4 4 5 4 4 4 4 5 5 5 5 4 3 3 4 3 3 3 4
4 3 2 3 2 2 3 4 3 2 0 2 2 2 4 2 3 3 3 4 4 3 3 4 5 5 5 5 4 4 4 4 4 5 5 5 4 3 4 4 4 3 3 3
2 4 3 2 3 3 3 4 1 1 1 3 4 4 1 2 3 4 3 4 4 3 3 4 4 5 6 5 4 4 4 3 3 3 3 3 3 3 3 4 3 4 4 3
4 3 3 1 2 3 7 3 3 4 2 1 3 3 4 4 3 3 4 5 3 2 2 2 2 2 2 3 3 3 3 3 3 2 2 2 3 3 2 2 3 4 3 3
6 6 4 3 2 4 5 3 2 3 2 1 3 3 3 3 5 3 0 3 4 3 3 2 3 3 2 2 3 3 2 2 2 2 2 2 3 3 3 3 4 3 3 3
4 5 5 3 3 4 6 4 0 5 1 3 1 3 3 4 3 3 2 2 2 3 3 2 2 3 3 1 3 3 2 2 2 2 2 2 2 2 3 4 4 3 3 3
3 3 3 4 3 5 5 4 4 3 5 4 0 2 3 3 5 4 2 1 2 3 3 3 3 3 2 2 3 3 1 2 2 1 1 2 2 2 3 2 2 2 2 2
4 3 3 3 3 6 5 3 2 4 2 1 2 1 2 2 2 2 2 3 3 3 3 3 3 2 1 2 3 2 1 2 0 0 0 1 1 2 1 1 1 1 1 1
2 5 5 5 6 5 1 2 2 3 2 0 1 1 2 1 1 2 2 2 2 2 3 2 3 2 1 1 3 3 1 0 1 1 1 1 1 1 0 1 1 1 1 1
3 2 3 1 2 2 2 1 1 1 1 1 1 1 2 2 2 2 2 1 1 1 2 2 3 2 0 1 1 1 1 1 1 0 1 1 1 1 1 0 1 1 1 1
3 2 2 1 3 3 3 3 3 2 1 2 2 2 2 3 2 2 2 1 0 0 0 2 2 1 0 0 0 1 1 1 1 0 1 1 1 1 0 1 1 2 2 3
3 3 3 5 6 3 5 5 3 2 1 0 1 2 1 2 2 2 1 1 1 1 1 1 1 1 0 0 0 1 0 1 1 0 1 1 1 1 0 0 2 3 2 3
Wind_Direction
312 56 274 252 224 217 219 208 223 251 215 131 152 171 183 186 176 180 181 178 177 183 182 166 162 162 156 157 154 155 154 159 144 134 138 137 158 166 170 180 170 162 164 162
357 271 247 251 265 251 198 227 247 275 208 129 158 182 190 191 190 186 182 184 182 179 165 169 167 168 168 170 166 162 165 166 163 163 162 160 158 170 171 172 170 177 175 179
222 249 264 268 267 251 272 215 228 222 37 73 103 356 255 212 198 192 185 182 179 178 177 177 177 184 176 177 177 173 173 170 171 163 138 116 94 79 90 130 182 202 181 172
248 258 267 271 259 209 273 246 205 179 83 303 127 174 274 218 216 200 191 187 186 184 180 180 181 185 188 186 179 171 170 171 172 159 153 153 154 167 192 184 186 189 163 148
260 259 266 265 254 218 242 237 100 59 107 49 36 125 271 211 221 216 197 194 191 186 183 185 187 188 186 179 171 169 165 168 166 162 162 158 160 173 171 150 143 161 177 159
261 262 240 241 258 228 220 35 22 42 63 29 254 155 265 219 210 208 205 196 190 186 185 185 188 183 178 173 169 169 168 172 169 167 163 161 163 159 146 152 163 182 209 251
302 297 277 252 316 331 60 76 27 2 9 266 273 117 251 242 214 193 195 192 185 182 180 178 180 177 174 172 173 171 170 176 178 173 173 171 170 164 166 174 180 181 196 222
249 289 276 240 192 206 204 134 148 195 232 281 335 241 265 261 222 185 173 173 172 169 171 173 176 175 176 175 173 174 176 183 185 182 180 175 169 169 175 179 178 188 204 213
202 256 280 279 216 156 155 164 164 139 138 360 308 304 321 340 34 99 137 149 165 168 167 171 173 173 173 174 179 178 178 184 189 185 172 171 170 173 182 181 177 188 203 209
172 248 291 301 34 16 149 150 88 104 134 280 302 288 249 268 315 317 146 151 162 166 164 171 174 175 177 177 177 173 173 177 179 176 174 175 175 177 180 173 180 194 213 214
139 163 301 353 79 237 12 52 97 112 148 155 221 270 236 204 202 174 166 158 155 162 166 166 171 178 177 166 162 164 169 166 165 169 170 169 175 178 176 178 187 191 212 205
147 126 259 273 265 197 157 161 134 139 221 166 164 259 278 190 186 151 147 165 163 167 167 161 153 139 146 159 161 162 164 161 164 170 161 170 169 168 173 187 196 190 195 196
115 107 57 340 342 358 35 63 123 130 123 150 162 259 313 53 128 136 138 146 136 141 144 140 127 123 135 150 158 161 164 162 156 161 164 168 174 176 185 193 196 189 178 185
107 108 152 192 225 267 319 334 30 102 133 201 209 227 287 222 177 209 159 140 127 137 137 132 129 133 135 141 146 150 158 160 160 168 178 180 184 188 191 191 189 184 181 193
88 113 175 213 227 149 317 310 329 1 190 184 215 208 231 212 187 186 162 131 110 110 128 135 138 139 138 137 146 160 163 169 171 173 182 194 195 188 180 180 187 190 194 206
67 100 42 334 335 15 346 322 322 340 136 153 130 265 253 214 115 108 129 136 127 125 140 140 141 146 157 160 166 169 177 180 170 176 190 191 184 183 185 193 192 195 209 217
49 97 78 285 310 26 312 264 230 32 25 152 176 215 194 77 111 148 154 142 136 144 148 149 162 174 177 177 177 176 180 169 164 177 181 177 183 193 204 203 196 204 213 214
141 115 131 187 37 226 244 252 140 111 32 124 153 168 156 161 160 144 147 140 124 134 150 177 170 178 181 172 166 161 149 149 158 164 172 180 184 196 204 205 213 214 212 215
159 144 135 135 177 265 291 289 152 131 323 298 151 139 136 137 77 22 45 139 151 157 160 183 175 171 154 159 157 137 140 154 168 186 196 201 199 202 204 217 228 222 213 220
89 111 124 137 157 224 253 287 51 99 320 302 145 140 129 101 105 259 262 153 141 144 149 147 135 114 123 147 137 132 160 174 204 217 214 210 198 206 216 225 229 223 215 218
35 52 132 165 192 247 267 310 37 106 236 289 329 145 139 152 191 215 204 133 128 125 122 119 123 124 137 146 125 124 144 220 231 228 214 214 218 228 231 236 241 227 227 227
171 159 186 155 176 246 294 33 107 203 237 341 18 69 102 140 160 154 133 120 107 104 108 109 111 108 113 121 125 133 197 242 217 127 233 237 243 245 243 248 265 235 211 229
173 184 180 176 201 236 275 133 198 174 137 58 66 67 115 121 146 120 117 117 114 119 123 118 115 96 40 102 136 148 219 191 106 63 288 260 274 286 265 215 251 255 204 211
313 34 92 67 265 278 316 347 304 137 116 83 86 83 106 118 110 99 107 108 107 122 132 128 116 109 21 350 121 172 195 159 106 44 293 250 224 307 318 324 240 215 225 231
272 359 53 298 273 328 325 325 328 347 21 56 60 83 108 123 127 132 138 144 161 127 101 122 128 137 220 317 150 180 176 128 109 305 287 274 237 232 282 320 291 240 226 210
237 189 184 228 234 210 255 281 303 333 321 39 74 47 67 123 139 116 131 150 159 146 117 111 109 113 180 134 205 250 223 151 162 246 285 269 247 248 223 297 333 327 283 248